Terminal Aerodrome Forecast
Issued by NWS Atlanta, GA

Home | Current Version | Previous Version | Text Only | Print | Product List | Glossary On
Versions: 1 2 3 4 5 6 7 8 9 10 11 12 13 14 15 16 17
000
FTUS42 KFFC 030905 AAB
TAFMCN
TAF AMD
KMCN 030905Z 0309/0406 00000KT 6SM BR BKN030 BKN090
     FM031000 25004KT 5SM BR SCT009 BKN015
     FM031200 24005KT P6SM BKN009
     FM031500 27009KT P6SM OVC015 PROB30 0318/0322 -TSRA BKN030CB
     FM032200 26008KT P6SM VCSH BKN050
     FM040000 25005KT P6SM BKN250=

USA.gov is the U.S. government's official web portal to all federal, state and local government web resources and services.